Flag for Austria Weather past 2 weeks in Tulln an der Donau, Lower Austria, Austria

Now
36 °F

Partly cloudy.


Feels Like: 28 °F
Forecast: 26 / 37 °F
Wind: 10 mph from West

Location: Tulln Airport

Current Time: Jan 26, 2015 at 12:03:20 AM

Latest Report: Jan 25, 2015 at 9:50 PM


Visibility: 9 mi

Pressure: 30.27 "Hg

Humidity: 81%

Dew point: 30 °F

Location of Tulln an der DonauLocation

Historic Weather in Tulln an der Donau — Graph

°F

Tulln an der Donau temperature yesterday

Maximum temperature yesterday: 37 °F (at 2:50 PM)
Minimum temperature yesterday: 30 °F (at 5:50 AM)
Average temperature yesterday: 35 °F

Past Weeks' High & Low Weather Summary

 TemperatureHumidityPressure
High59 °F (Jan 10, 9:50 PM)100% (Jan 14, 4:50 AM)30.27 "Hg (Jan 14, 4:50 AM)
Low27 °F (Jan 14, 4:50 AM)46% (Jan 13, 11:50 AM)29.74 "Hg (Jan 17, 4:50 AM)
Average39 °F83%30.00 "Hg
* Reported Jan 10 9:50 PM — Jan 25 9:50 PM, Tulln an der Donau, Weather by CustomWeather, © 2014

Note: Actual official high and low records may vary slightly from our data, if they occured in-between our weather recording intervals... More about our weather records

Advertising

Tulln an der Donau weather history for previous 24 hours

 ConditionsComfort  
Time TempWeatherWind HumidityBarometerVisibility
9:50 PM
Jan 25
36 °FPartly cloudy.10 mph81%30.27 "Hg9 mi
8:50 PM37 °FPassing clouds.10 mph75%30.27 "Hg9 mi
7:50 PM36 °FPassing clouds.9 mph81%30.27 "Hg9 mi
6:50 PM36 °FPassing clouds.10 mph75%30.27 "Hg9 mi
5:50 PM36 °FPassing clouds.10 mph75%30.24 "Hg12 mi
4:50 PM37 °FPassing clouds.12 mph75%30.24 "Hg16 mi
3:50 PM37 °FPartly sunny.12 mph70%30.21 "Hg16 mi
2:50 PM37 °FBroken clouds.13 mph75%30.18 "Hg9 mi
1:50 PM36 °FBroken clouds.9 mph87%30.18 "Hg7 mi
12:50 PM34 °FLight rain. Broken clouds.8 mph100%30.18 "Hg4 mi
11:50 AM34 °FBroken clouds.7 mph93%30.18 "Hg4 mi
10:50 AM34 °FLight snow. Fog.12 mph93%30.18 "Hg1 mi
9:50 AM34 °FPartly sunny.13 mph87%30.18 "Hg4 mi
8:50 AM34 °FLight snow. Partly sunny.12 mph87%30.15 "Hg4 mi
7:50 AM32 °FLight snow. Broken clouds.15 mph93%30.15 "Hg1 mi
6:50 AM32 °FLight snow. Mostly cloudy.13 mph93%30.12 "Hg1 mi
5:50 AM30 °FLight snow. Mostly cloudy.10 mph100%30.12 "Hg1 mi
4:50 AM32 °FLight snow. Passing clouds.14 mph93%30.12 "Hg2 mi
Weather by CustomWeather, © 2014

See weather overviewHow to use our weather pages